Location: Asheville, NC
(35.6000°N, 82.5500°W)
Time: 12:46:38
(UTC-04:00)

Vanguard 1 Rocket - Pass Details

Date: 09 December 2017
Orbit: 653 x 4224 km, 34.3° (Epoch: 18 June)

Event Time Altitude Azimuth Distance (km) Brightness Sun altitude
Rises 19:38:51 0° 258° (WSW) 5,155 12.5 -28.1°
Reaches altitude 10° 19:41:32 10° 258° (WSW) 4,502 11.9 -28.6°
Maximum altitude 19:55:27 85° 172° (S) 3,151 9.9 -31.4°
Enters shadow 20:04:47 47° 90° (E) 4,441 10.3 -33.3°
